Home > Weather > Joinville > Past weeks

Flag for Brazil Past Weather in Joinville, Santa Catarina, Brazil — Yesterday and Last 2 Weeks

Now
61 °F

Clear.


Feels Like: 61 °F
Forecast: N/A
Wind: 8 mph from East

Location: Curitiba Aeroporto

Current Time: Jul 25, 2016 at 7:02:02 PM

Latest Report: Jul 25, 2016 at 6:00 PM


Visibility: 10 mi

Pressure: 30.15 "Hg

Humidity: 83%

Dew Point: 55 °F

Location of JoinvilleLocation

Past Weather in Joinville — Graph

°F

Joinville Temperature Yesterday

Maximum temperature yesterday: 73 °F (at 2:00 PM)
Minimum temperature yesterday: 48 °F (at 7:00 AM)
Average temperature yesterday: 58 °F

High & Low Weather Summary for the Past Weeks

 TemperatureHumidityPressure
High81 °F (Jul 11, 2:00 PM)100% (Jul 11, 3:00 AM)30.30 "Hg (Jul 11, 3:00 AM)
Low32 °F (Jul 18, 5:00 AM)30% (Jul 11, 3:00 PM)29.86 "Hg (Jul 16, 5:00 AM)
Average56 °F78%30.12 "Hg
* Reported Jul 10 6:00 PM — Jul 25 6:00 PM, Joinville, Weather by CustomWeather, © 2016

Note: Actual official high and low records may vary slightly from our data, if they occured in-between our weather recording intervals... More about our weather records

Advertising

Joinville Weather History for the Previous 24 Hours

Scroll right to see more
 ConditionsComfort  
Time TempWeatherWind HumidityBarometerVisibility
6:00 PM
Mon, Jul 25
61 °FClear.8 mph83%30.15 "Hg10 mi
5:00 PM68 °FClear.9 mph64%30.15 "Hg10 mi
4:00 PM72 °FSunny.10 mph57%30.15 "Hg10 mi
3:00 PM73 °FSunny.9 mph47%30.15 "Hg10 mi
2:00 PM73 °FSunny.7 mph47%30.18 "Hg10 mi
1:00 PM72 °FSunny.7 mph53%30.21 "Hg10 mi
12:00 PM70 °FSunny.5 mph53%30.24 "Hg10 mi
11:00 AM68 °FSunny.6 mph60%30.27 "Hg10 mi
10:00 AM63 °FSunny.3 mph73%30.27 "Hg10 mi
9:00 AM57 °FClear.1 mph82%30.27 "Hg6 mi
8:00 AM50 °FClear.1 mph94%30.24 "Hg5 mi
7:00 AM46 °FPassing clouds.2 mph93%30.24 "Hg4 mi
6:00 AM46 °FSunny.2 mph93%30.21 "Hg10 mi
5:00 AM46 °FClear.3 mph93%30.21 "Hg10 mi
4:00 AM48 °FClear.2 mph100%30.21 "Hg10 mi
3:00 AM50 °FClear.2 mph94%30.21 "Hg10 mi
2:00 AM52 °FClear.3 mph94%30.24 "Hg10 mi
1:00 AM50 °FClear.2 mph100%30.24 "Hg10 mi
12:00 AM52 °FClear.2 mph94%30.21 "Hg10 mi
11:00 PM
Sun, Jul 24
54 °FClear.2 mph94%30.24 "Hg10 mi
10:00 PM55 °FClear.5 mph88%30.24 "Hg10 mi
9:00 PM55 °FClear.5 mph88%30.21 "Hg10 mi
8:00 PM57 °FClear.7 mph82%30.21 "Hg10 mi
7:00 PM61 °FClear.6 mph68%30.21 "Hg10 mi
Weather by CustomWeather, © 2016

See weather overviewHow to use our weather pages